Hourly Data Report for October 05, 2017

All times are specified in Local Standard Time (LST). Add 1 hour to adjust for Daylight Saving Time where and when it is observed.

PARRSBORO
NOVA SCOTIA

45°24'48.000" N
64°20'49.000" W
30.90 m
8204402
71493
APR

Download Data

Hourly Data (October 2017)
Hourly Data Report for October 5, 2017
Temp Definition
°C
Dew Point Temp Definition
°C
Rel Hum Definition
%
Wind Dir Definition
10's deg

Wind Spd Definition
km/h
Visibility Definition
km
Stn Press Definition
kPa
Hmdx Definition


Wind Chill Definition


Weather Definition


TIME
00:00 13.1 11.1 88 23 1   100.99     LegendNANA
01:00 10.8 9.7 93 15 2   100.91     LegendNANA
02:00 10.1 9.4 95   0   100.83     LegendNANA
03:00 12.1 11.5 96 28 2   100.80     LegendNANA
04:00 15.7 13.5 87 26 11   100.77     LegendNANA
05:00 15.9 13.3 85 26 18   100.69     LegendNANA
06:00 15.8 13.3 86 26 17   100.76     LegendNANA
07:00 15.3 13.3 88 26 13   100.82     LegendNANA
08:00 15.1 13.1 88 26 18   100.88     LegendNANA
09:00 16.2 13.2 83 27 14   100.90     LegendNANA
10:00 18.0 13.6 76 25 10   100.92     LegendNANA
11:00 18.8 13.2 70 26 12   100.93     LegendNANA
12:00 19.5 12.8 65 24 11   100.91     LegendNANA
13:00 20.5 11.6 57 25 10   100.87     LegendNANA
14:00 19.7 10.8 57 25 14   100.87     LegendNANA
15:00 19.4 11.1 59 25 11   100.86     LegendNANA
16:00 18.1 11.5 65 26 13   100.88     LegendNANA
17:00 16.6 12.6 77 27 6   100.90     LegendNANA
18:00 14.0 11.4 84 0 1   100.91     LegendNANA
19:00 10.8 9.5 91   0   100.94     LegendNANA
20:00 12.2 10.3 88 24 4   100.97     LegendNANA
21:00 8.7 7.8 94   0   101.04     LegendNANA
22:00 7.1 6.4 95   0   101.10     LegendNANA
23:00 8.4 7.8 96 31 2   101.03     LegendNANA

Notes on Data Quality.

Legend

  • E = Estimated
  • M = Missing
  • NA = Not Available
  • ‡ = Partner data that is not subject to review by the National Climate Archives
Date modified: